F4NFR-13 Weather Reports


time (UTC)temp
F
wind
direction
speed
knots
gust
knots
rain 1hr
in
rain 24hr
in
rain mn
in
humidity
%
barometer
mb
20260507085534 54 2 1.7 2.6 0.00 0.00 0.00 69 1017.8
20260507085031 55 32 1.7 1.7 0.00 0.00 0.00 72 1017.8
20260507084529 54 21 3.5 4.3 0.00 0.00 0.00 73 1017.8
20260507084027 54 28 3.5 5.2 0.00 0.00 0.00 72 1017.8
20260507083524 54 70 2.6 2.6 0.00 0.00 0.00 71 1017.8
20260507082519 55 50 1.7 2.6 0.00 0.00 0.00 73 1017.8
20260507082017 54 23 5.2 6.1 0.00 0.00 0.00 71 1017.8
20260507081514 55 38 1.7 2.6 0.00 0.00 0.00 70 1017.8
20260507081011 55 3 0.9 1.7 0.00 0.00 0.00 71 1017.8
20260507080509 55 73 0.9 1.7 0.00 0.00 0.00 73 1017.8
20260507080007 55 83 1.7 3.5 0.00 0.00 0.00 71 1017.8
20260507075504 55 56 3.5 6.1 0.00 0.00 0.00 72 1017.8
20260507074500 55 34 1.7 3.5 0.00 0.00 0.00 71 1017.8
20260507073957 55 97 3.5 3.5 0.00 0.00 0.00 72 1017.8
20260507073454 55 90 1.7 6.1 0.00 0.00 0.00 69 1017.8
20260507072952 55 14 1.7 4.3 0.00 0.00 0.00 73 1017.8
20260507072449 55 107 1.7 2.6 0.00 0.00 0.00 74 1017.8
20260507071947 55 80 3.5 3.5 0.00 0.00 0.00 73 1017.8
20260507071445 55 71 1.7 3.5 0.00 0.00 0.00 74 1017.8
20260507070942 55 77 2.6 5.2 0.00 0.00 0.00 73 1017.8
20260507070440 55 73 1.7 4.3 0.00 0.00 0.00 74 1017.8
20260507065938 55 355 1.7 5.2 0.00 0.00 0.00 73 1017.8
20260507065435 55 23 2.6 4.3 0.00 0.00 0.00 71 1017.8
20260507064932 55 57 0.9 0.9 0.00 0.00 0.00 73 1017.4
20260507064430 55 353 5.2 5.2 0.00 0.00 0.00 73 1017.4
20260507063928 54 42 3.5 3.5 0.00 0.00 0.00 77 1017.4
20260507063425 54 59 0.9 0.9 0.00 0.00 0.00 81 1017.4
20260507062922 52 74 1.7 2.6 0.00 0.00 0.00 84 1017.4
20260507062420 52 87 0.9 1.7 0.00 0.00 0.00 86 1017.4
20260507061918 50 33 1.7 1.7 0.00 0.00 0.00 89 1017.4
20260507061416 50 78 0.9 0.9 0.00 0.00 0.00 90 1017.4
20260507060913 48 57 0.9 0.9 0.00 0.00 0.00 92 1017.4
20260507060411 48 14 0.9 0.9 0.00 0.00 0.00 94 1017.4
20260507055908 48 15 0.0 0.0 0.00 0.00 0.00 94 1017.4
20260507055406 46 24 0.0 0.0 0.00 0.00 0.00 94 1017.4
20260507054903 46 38 0.0 0.0 0.00 0.00 0.00 94 1017.4
20260507054401 46 64 0.9 0.9 0.00 0.00 0.00 95 1017.1
20260507053356 46 19 0.0 0.0 0.00 0.00 0.00 96 1017.1
20260507052352 45 11 0.0 0.0 0.00 0.00 0.00 96 1017.1
20260507051849 45 3 0.0 0.0 0.00 0.00 0.00 96 1017.1
20260507051346 45 16 0.0 0.0 0.00 0.00 0.00 96 1017.1
20260507050844 45 25 0.0 0.0 0.00 0.00 0.00 96 1017.1
20260507050342 45 28 0.0 0.0 0.00 0.00 0.00 96 1017.1
20260507045838 45 12 0.0 0.0 0.00 0.00 0.00 96 1017.1
20260507045336 43 27 0.0 0.0 0.00 0.00 0.00 96 1017.1
20260507044834 43 55 0.9 0.9 0.00 0.00 0.00 96 1016.7
20260507044332 43 9 0.0 0.0 0.00 0.00 0.00 97 1016.7
20260507043326 41 28 0.0 0.0 0.00 0.00 0.00 96 1016.7
20260507042825 43 61 0.0 0.0 0.00 0.00 0.00 96 1016.7
20260507042322 41 26 0.0 0.0 0.00 0.00 0.00 96 1016.7
20260507041819 43 30 0.0 0.0 0.00 0.00 0.00 96 1016.7
20260507041317 43 54 0.9 0.9 0.00 0.00 0.00 96 1016.7
20260507040815 45 10 0.0 0.0 0.00 0.00 0.00 96 1016.7
20260507040312 45 342 0.9 0.9 0.00 0.00 0.00 97 1016.7
20260507035809 45 329 0.9 0.9 0.00 0.00 0.00 97 1016.7
20260507035307 43 0 0.0 0.0 0.00 0.00 0.00 96 1016.7
20260507034804 43 23 0.0 0.0 0.00 0.00 0.00 96 1016.7
20260507034301 43 21 0.0 0.0 0.00 0.00 0.00 96 1016.7
20260507033257 43 4 0.0 0.0 0.00 0.00 0.00 96 1016.7
20260507032754 43 353 0.9 0.9 0.00 0.00 0.00 96 1016.7
20260507031750 43 276 0.0 0.9 0.00 0.00 0.00 95 1016.7
20260507031247 43 320 0.9 0.9 0.00 0.00 0.00 95 1016.7
20260507030745 43 345 0.9 0.9 0.00 0.00 0.00 95 1016.7
20260507025740 45 0 0.0 0.9 0.00 0.00 0.00 94 1016.7
20260507025238 45 0 0.0 0.0 0.00 0.00 0.00 94 1016.7
20260507024735 45 340 0.9 0.9 0.00 0.00 0.00 94 1016.7
20260507024233 45 330 0.9 0.9 0.00 0.00 0.00 94 1016.7
20260507023731 45 287 0.9 0.9 0.00 0.00 0.00 94 1016.7
20260507023229 45 300 0.9 0.9 0.00 0.00 0.00 93 1016.7
20260507022725 45 320 0.9 0.9 0.00 0.00 0.00 93 1016.7
20260507022224 45 268 0.9 0.9 0.00 0.00 0.00 93 1016.7
20260507021721 45 317 0.0 0.9 0.00 0.00 0.00 93 1016.7
20260507021219 45 334 0.0 0.0 0.00 0.00 0.00 93 1016.7
20260507020716 45 333 0.0 0.9 0.00 0.00 0.00 93 1016.7
20260507020213 45 345 0.9 0.9 0.00 0.00 0.00 93 1016.4
20260507015711 45 0 0.9 0.9 0.00 0.00 0.00 93 1016.4
20260507014706 45 297 0.9 0.9 0.00 0.00 0.00 93 1016.4
20260507014203 45 282 0.9 0.9 0.00 0.00 0.00 93 1016.4
20260507013701 45 0 0.9 0.9 0.00 0.00 0.00 93 1016.4
20260507013159 45 16 0.9 0.9 0.00 0.00 0.00 93 1016.4
20260507012656 45 354 0.0 0.0 0.00 0.00 0.00 93 1016.4
20260507012154 45 349 0.0 0.0 0.00 0.00 0.00 93 1016.4
20260507011651 45 344 0.0 0.9 0.00 0.00 0.00 92 1016.4
20260507011148 45 354 0.9 0.9 0.00 0.00 0.00 93 1016.4
20260507010646 45 351 0.0 0.9 0.00 0.00 0.00 92 1016.4
20260507010143 45 319 0.9 0.9 0.00 0.00 0.00 92 1016.4
20260507005641 45 325 0.9 0.9 0.00 0.00 0.00 92 1016.4
20260507005138 45 341 0.0 0.0 0.00 0.00 0.00 91 1016.4
20260507004636 45 6 0.0 0.0 0.00 0.00 0.00 90 1016.4
20260507004134 46 28 0.0 0.0 0.00 0.00 0.00 90 1016.4
20260507003631 46 4 0.9 0.9 0.00 0.00 0.00 91 1016.4
20260507003129 45 345 0.9 0.9 0.00 0.00 0.00 91 1016.4
20260507002626 45 315 0.9 0.9 0.00 0.00 0.00 91 1016.4
20260507002124 45 290 0.9 0.9 0.00 0.00 0.00 91 1016.4
20260507001622 46 315 0.9 0.9 0.00 0.00 0.00 91 1016.4
20260507001120 46 284 0.9 0.9 0.00 0.00 0.00 90 1016.4
20260507000618 46 317 0.9 0.9 0.00 0.00 0.00 90 1016.4
20260507000116 46 344 0.9 0.9 0.00 0.00 0.00 90 1016.4
20260506235613 46 313 0.9 0.9 0.00 0.00 0.00 89 1016.4
20260506235110 46 326 0.9 0.9 0.00 0.00 0.00 88 1016.4
20260506234608 46 338 0.9 0.9 0.00 0.00 0.00 88 1016.4
20260506234106 46 348 0.0 0.9 0.00 0.00 0.00 88 1016.4
20260506233604 46 8 0.9 1.7 0.00 0.00 0.00 88 1016.4
20260506233101 46 358 1.7 1.7 0.00 0.00 0.00 88 1016.4
20260506232559 46 5 0.9 0.9 0.00 0.00 0.00 88 1016.4
20260506232057 46 336 0.9 0.9 0.00 0.00 0.00 88 1016.4
20260506231555 48 323 0.9 0.9 0.00 0.00 0.00 88 1016.4
20260506231052 48 22 1.7 1.7 0.00 0.00 0.00 88 1016.4
20260506230550 48 351 0.9 0.9 0.00 0.00 0.00 88 1016.4
20260506230048 48 357 0.9 1.7 0.00 0.00 0.00 87 1016.4
20260506225546 48 24 0.9 0.9 0.00 0.00 0.00 87 1016.4
20260506225043 48 324 0.9 0.9 0.00 0.00 0.00 87 1016.4
20260506224037 48 64 1.7 2.6 0.00 0.00 0.00 86 1016.1
20260506223534 48 344 2.6 3.5 0.00 0.00 0.00 86 1016.1
20260506223031 48 354 1.7 1.7 0.00 0.00 0.00 86 1016.1
20260506222529 48 33 0.9 1.7 0.00 0.00 0.00 85 1016.1
20260506222027 50 32 0.9 1.7 0.00 0.00 0.00 84 1016.1
20260506221525 48 28 0.9 0.9 0.00 0.00 0.00 85 1016.1
20260506221022 50 47 1.7 3.5 0.00 0.00 0.00 85 1016.1
20260506220520 50 27 1.7 2.6 0.00 0.00 0.00 85 1016.1
20260506220017 50 39 1.7 2.6 0.00 0.00 0.00 85 1016.1
20260506215515 50 8 1.7 1.7 0.00 0.00 0.00 85 1016.1
20260506215013 50 50 0.0 0.9 0.00 0.00 0.00 85 1016.1
20260506214510 50 57 1.7 2.6 0.00 0.00 0.00 85 1015.7
20260506214007 50 52 1.7 2.6 0.00 0.00 0.00 85 1015.7
20260506213505 50 31 1.7 3.5 0.00 0.00 0.00 85 1016.1
20260506213003 50 16 3.5 4.3 0.00 0.00 0.00 85 1016.1
20260506212500 50 27 1.7 2.6 0.00 0.00 0.00 85 1015.7
20260506211957 50 29 3.5 4.3 0.00 0.00 0.00 85 1015.7
20260506211454 50 20 1.7 2.6 0.00 0.00 0.00 85 1015.7
20260506210952 50 28 1.7 2.6 0.00 0.00 0.00 85 1015.7
20260506210450 50 12 2.6 3.5 0.00 0.00 0.00 85 1015.7
20260506205948 50 5 1.7 1.7 0.00 0.00 0.00 85 1015.7
20260506205445 50 19 1.7 5.2 0.00 0.00 0.00 85 1015.7
20260506204942 50 4 4.3 4.3 0.00 0.00 0.00 85 1015.7
20260506204439 50 336 1.7 2.6 0.00 0.00 0.00 85 1015.7
20260506203937 50 11 2.6 5.2 0.00 0.00 0.00 85 1015.7
20260506203434 50 0 4.3 6.1 0.00 0.00 0.00 85 1015.7
20260506202932 50 18 1.7 2.6 0.00 0.00 0.00 85 1015.7
20260506202429 50 14 1.7 2.6 0.00 0.00 0.00 84 1015.7
20260506201927 50 8 3.5 3.5 0.00 0.00 0.00 84 1015.7
20260506201424 50 357 1.7 1.7 0.00 0.00 0.00 84 1015.7
20260506200922 50 353 3.5 3.5 0.00 0.00 0.00 84 1015.7
20260506200420 50 9 1.7 2.6 0.00 0.00 0.00 84 1015.4
20260506195917 50 28 0.9 2.6 0.00 0.00 0.00 83 1015.4
20260506195414 50 8 0.9 2.6 0.00 0.00 0.00 83 1015.4
20260506194912 50 2 5.2 5.2 0.00 0.00 0.00 83 1015.4
20260506194409 50 17 3.5 6.1 0.00 0.00 0.00 82 1015.4
20260506193907 50 47 6.1 6.1 0.00 0.00 0.00 82 1015.0
20260506193404 50 0 4.3 4.3 0.00 0.00 0.00 82 1015.0
20260506192901 50 0 2.6 4.3 0.00 0.00 0.00 82 1015.0
20260506192359 50 32 2.6 4.3 0.00 0.00 0.00 81 1015.0
20260506191856 50 353 3.5 3.5 0.00 0.00 0.00 81 1015.0
20260506191354 50 11 1.7 3.5 0.00 0.00 0.00 81 1015.0
20260506190851 50 0 2.6 3.5 0.00 0.00 0.00 80 1015.0
20260506190349 50 21 4.3 6.1 0.00 0.00 0.00 79 1015.0
20260506185847 50 8 2.6 5.2 0.00 0.00 0.00 79 1014.7
20260506185344 50 28 3.5 5.2 0.00 0.00 0.00 78 1014.7
20260506184841 50 13 1.7 2.6 0.00 0.00 0.00 77 1014.7
20260506184338 50 29 5.2 5.2 0.00 0.00 0.00 77 1014.7
20260506183836 50 26 1.7 4.3 0.00 0.00 0.00 76 1014.7
20260506183333 52 24 1.7 2.6 0.00 0.00 0.00 75 1014.7
20260506182831 52 62 2.6 5.2 0.00 0.00 0.00 75 1014.7
20260506182328 52 71 6.1 6.1 0.00 0.00 0.00 74 1014.7
20260506181826 52 61 3.5 4.3 0.00 0.00 0.00 73 1014.7
20260506181324 52 63 5.2 5.2 0.00 0.00 0.00 72 1014.7
20260506180821 52 30 2.6 3.5 0.00 0.00 0.00 71 1014.4
20260506180318 52 14 5.2 5.2 0.00 0.00 0.00 69 1014.4
20260506175816 52 46 3.5 4.3 0.00 0.00 0.00 69 1014.4
20260506175314 52 323 3.5 4.3 0.00 0.00 0.00 68 1014.4
20260506174812 54 0 1.7 1.7 0.00 0.00 0.00 69 1014.4
20260506174309 54 25 5.2 6.1 0.00 0.00 0.00 69 1014.0
20260506173807 54 5 2.6 7.8 0.00 0.00 0.00 67 1014.0
20260506173305 54 29 5.2 6.1 0.00 0.00 0.00 68 1014.0
20260506172802 54 81 5.2 7.8 0.00 0.00 0.00 66 1014.0
20260506172300 54 32 2.6 3.5 0.00 0.00 0.00 66 1014.0
20260506171757 54 90 1.7 5.2 0.00 0.00 0.00 66 1014.0
20260506171254 54 7 3.5 6.1 0.00 0.00 0.00 66 1014.0
20260506170752 54 33 2.6 2.6 0.00 0.00 0.00 66 1014.0
20260506170249 54 76 4.3 7.0 0.00 0.00 0.00 65 1014.0
20260506165747 54 63 2.6 5.2 0.00 0.00 0.00 66 1014.0
20260506165245 55 77 0.9 3.5 0.00 0.00 0.00 66 1014.0
20260506164742 55 71 2.6 5.2 0.00 0.00 0.00 66 1014.0
20260506164240 55 0 5.2 6.1 0.00 0.00 0.00 64 1013.7
20260506163737 55 38 9.6 12.2 0.00 0.00 0.00 64 1013.7
20260506163234 55 73 4.3 6.1 0.00 0.00 0.00 64 1013.7
20260506162732 55 51 3.5 5.2 0.00 0.00 0.00 66 1013.7
20260506162230 55 16 0.0 1.7 0.00 0.00 0.00 67 1013.7
20260506161225 54 354 7.8 7.8 0.00 0.00 0.00 67 1014.0
20260506160723 54 39 7.8 8.7 0.00 0.00 0.00 66 1014.0
20260506160221 55 12 5.2 6.1 0.00 0.00 0.00 66 1014.0
20260506155718 54 8 13.0 13.0 0.00 0.00 0.00 65 1014.0
20260506155216 55 55 5.2 6.1 0.00 0.00 0.00 67 1014.0
20260506154211 55 26 6.1 6.1 0.00 0.00 0.00 67 1014.0
20260506152704 55 357 2.6 5.2 0.00 0.00 0.00 67 1013.7
20260506152201 55 7 6.1 10.4 0.00 0.00 0.00 67 1013.7
20260506151659 55 27 5.2 7.8 0.00 0.00 0.00 66 1013.7
20260506150655 55 1 3.5 3.5 0.00 0.00 0.00 68 1013.7
20260506150153 55 354 7.8 7.8 0.00 0.00 0.00 68 1013.7
20260506145650 55 43 5.2 5.2 0.00 0.00 0.00 67 1013.7
20260506145148 55 41 5.2 10.4 0.00 0.00 0.00 66 1013.7
20260506144645 55 353 2.6 3.5 0.00 0.00 0.00 68 1013.7
20260506144148 55 52 1.7 3.5 0.00 0.00 0.00 72 1013.7
20260506143641 54 39 3.5 4.3 0.00 0.00 0.00 72 1013.7
20260506142133 54 92 1.7 1.7 0.00 0.00 0.00 75 1013.7
20260506141630 52 47 3.5 4.3 0.00 0.00 0.00 75 1013.7
20260506141128 52 9 5.2 5.2 0.00 0.00 0.00 78 1013.7
20260506140626 52 53 7.0 7.0 0.00 0.00 0.00 78 1013.7
20260506140124 54 44 3.5 5.2 0.00 0.00 0.00 77 1013.7
20260506135622 54 53 3.5 7.8 0.00 0.00 0.00 75 1013.7
20260506135119 54 359 1.7 3.5 0.00 0.00 0.00 75 1013.7
20260506134617 54 342 2.6 4.3 0.00 0.00 0.00 75 1013.7
20260506134114 52 0 2.6 6.1 0.00 0.00 0.00 76 1013.7
20260506133613 52 24 9.6 9.6 0.00 0.00 0.00 75 1013.7
20260506133110 54 31 11.3 12.2 0.00 0.00 0.00 73 1013.7
20260506132608 54 45 3.5 5.2 0.00 0.00 0.00 73 1013.7
20260506132105 54 39 4.3 5.2 0.00 0.00 0.00 73 1013.7
20260506131603 54 50 2.6 5.2 0.00 0.00 0.00 73 1013.7
20260506131101 54 26 8.7 10.4 0.00 0.00 0.00 73 1013.7
20260506130055 54 1 7.8 7.8 0.00 0.00 0.00 73 1013.7
20260506125553 52 7 8.7 8.7 0.00 0.00 0.00 74 1013.7
20260506125050 54 0 2.6 2.6 0.00 0.00 0.00 76 1013.7
20260506124547 52 330 4.3 6.1 0.00 0.00 0.00 77 1013.7
20260506123543 52 20 7.0 10.4 0.00 0.00 0.00 79 1013.7
20260506123040 50 22 5.2 6.1 0.00 0.00 0.00 79 1013.7
20260506122538 50 39 8.7 13.0 0.00 0.00 0.00 79 1013.7
20260506121533 52 38 6.1 6.1 0.00 0.00 0.00 81 1013.7
20260506121030 52 23 6.1 6.1 0.00 0.00 0.00 82 1013.7
20260506120528 52 22 1.7 2.6 0.00 0.00 0.00 83 1013.7
20260506120025 52 59 4.3 4.3 0.00 0.00 0.00 81 1013.4
20260506115523 52 66 3.5 5.2 0.00 0.00 0.00 79 1013.4
20260506115021 52 68 5.2 7.0 0.00 0.00 0.00 78 1013.4
20260506114519 52 61 3.5 3.5 0.00 0.00 0.00 78 1013.4
20260506114016 52 82 6.1 6.1 0.00 0.00 0.00 79 1013.4
20260506113514 52 348 5.2 5.2 0.00 0.00 0.00 78 1013.4
20260506113011 52 33 6.1 10.4 0.00 0.00 0.00 79 1013.4
20260506112509 52 14 4.3 6.1 0.00 0.00 0.00 81 1013.4
20260506112007 52 33 7.0 7.0 0.00 0.00 0.00 81 1013.4
20260506111504 52 47 3.5 4.3 0.00 0.00 0.00 81 1013.4
20260506111001 52 38 4.3 5.2 0.00 0.00 0.00 80 1013.4
20260506105956 52 47 5.2 7.8 0.00 0.00 0.00 78 1013.4
20260506104952 52 333 7.0 10.4 0.00 0.00 0.00 79 1013.4
20260506104449 52 30 7.8 7.8 0.00 0.00 0.00 78 1013.4
20260506103947 52 11 1.7 5.2 0.00 0.00 0.00 80 1013.4
20260506103445 52 66 5.2 8.7 0.00 0.00 0.00 80 1013.4
20260506102440 50 23 9.6 13.0 0.00 0.00 0.00 80 1013.4
20260506101938 50 64 9.6 9.6 0.00 0.00 0.00 80 1013.4
20260506101435 50 19 6.1 8.7 0.00 0.00 0.00 79 1013.4
20260506100932 52 30 3.5 5.2 0.00 0.00 0.00 80 1013.4
20260506100430 50 23 3.5 6.1 0.00 0.00 0.00 81 1013.4
20260506095927 50 27 6.1 6.1 0.00 0.00 0.00 81 1013.4
20260506095425 50 1 9.6 9.6 0.00 0.00 0.00 80 1013.4
20260506094922 50 42 5.2 7.8 0.00 0.00 0.00 80 1013.4
20260506094420 50 345 7.8 9.6 0.00 0.00 0.00 80 1013.4
20260506093415 52 22 3.5 5.2 0.00 0.00 0.00 80 1013.0
20260506092913 52 66 5.2 9.6 0.00 0.00 0.00 79 1013.0
20260506092410 52 17 4.3 6.1 0.00 0.00 0.00 79 1013.0
20260506091908 50 18 10.4 12.2 0.00 0.00 0.00 78 1013.0
20260506091405 52 31 10.4 13.9 0.00 0.00 0.00 78 1013.0
20260506090904 52 5 2.6 5.2 0.00 0.00 0.00 78 1013.0
20260506090401 52 304 1.7 8.7 0.00 0.00 0.00 78 1013.0